Location: *
(46.1866°S, 178.5290°W)
Time: 05:41:43
(UTC+00:00)

CZ-4B R/B - Pass Details

Date: 29 September 2021
Orbit: 809 x 881 km, 99.1° (Epoch: 17 October)

Event Time Altitude Azimuth Distance (km) Brightness Sun altitude
Rises 08:21:57 0° 176° (S) 3,373 6.7 -24.0°
Reaches altitude 10° 08:24:43 10° 189° (S) 2,433 6.1 -24.4°
Maximum altitude 08:28:52 23° 240° (WSW) 1,678 5.5 -25.0°
Drops below altitude 10° 08:32:59 10° 291° (WNW) 2,421 6.0 -25.6°
Sets 08:35:45 0° 304° (NW) 3,353 6.6 -26.0°
